Location: Gage
(33.9753°N, 118.1267°W)
Time: 09:57:17
(UTC+00:00)

Cosmos 2278 Rocket - Pass Details

Date: 03 August 2024
Orbit: 841 x 844 km, 71.0° (Epoch: 10 September)

Event Time Altitude Azimuth Distance (km) Brightness Sun altitude
Rises 12:08:17 0° 342° (NNW) 3,401 5.5 -11.6°
Reaches altitude 10° 12:10:45 10° 345° (NNW) 2,464 4.8 -11.1°
Maximum altitude 12:16:23 68° 68° (ENE) 906 2.6 -10.1°
Drops below altitude 10° 12:21:59 10° 151° (SSE) 2,452 4.6 -9.1°
Sets 12:24:26 0° 154° (SSE) 3,384 5.3 -8.7°
